This is the latest recevied weather packets stored in our database for station/object PE1BMM-13. If no packets are shown the sender has not sent any weather packets the latest 10 day(s).
| Time | Temp. | Humidity | Pressure | Rain* | Wind** | Luminosity | Snow |
|---|---|---|---|---|---|---|---|
| 1777881385 | 13.33° C | 98% | 1013.4 hPa | 0 mm | - | - | - |
| 1777869371 | 12.78° C | 98% | 1012.1 hPa | 0 mm | - | - | - |
| 1777866966 | 12.78° C | 97% | 1012 hPa | 0 mm | - | - | - |
| 1777866651 | 12.22° C | 97% | 1012.1 hPa | 0 mm | - | - | - |
| 1777863961 | 12.22° C | 97% | 1012 hPa | 0 mm | - | - | - |
| 1777862162 | 12.22° C | 97% | 1011.9 hPa | 0 mm | - | - | - |
| 1777859760 | 11.67° C | 97% | 1011.9 hPa | 0 mm | - | - | - |
| 1777859155 | 11.67° C | 97% | 1012 hPa | 0 mm | - | - | - |
| 1777857354 | 11.67° C | 96% | 1012.1 hPa | 0 mm | - | - | - |
| 1777856151 | 11.67° C | 96% | 1011.9 hPa | 0 mm | - | - | - |
| 1777856103 | 11.67° C | 96% | 1011.7 hPa | 0 mm | - | - | - |
| 1777851349 | 11.67° C | 95% | 1011.9 hPa | 0 mm | - | - | - |
| 1777848948 | 12.78° C | 93% | 1011.6 hPa | 0 mm | - | - | - |
| 1777847748 | 13.33° C | 93% | 1011.4 hPa | 0 mm | - | - | - |
| 1777846545 | 13.33° C | 93% | 1011.5 hPa | 0 mm | - | - | - |
| 1777842344 | 14.44° C | 91% | 1011.4 hPa | 0 mm | - | - | - |
| 1777837540 | 15° C | 89% | 1011.1 hPa | 0 mm | - | - | - |
| 1777836941 | 15° C | 89% | 1011 hPa | 0 mm | - | - | - |
| 1777830902 | 15.56° C | 88% | 1010 hPa | 0 mm | - | - | - |
| 1777829737 | 15.56° C | 88% | 1010.1 hPa | 0 mm | - | - | - |
| 1777824330 | 16.67° C | 86% | 1010 hPa | 0 mm | - | - | - |
| 1777820089 | 15.56° C | 90% | 1009.8 hPa | 0 mm | - | - | - |
| 1777815927 | 15.56° C | 92% | 1010.3 hPa | 0 mm | - | - | - |
| 1777815329 | 15.56° C | 93% | 1010.5 hPa | 0 mm | - | - | - |
| 1777813528 | 15° C | 96% | 1010.8 hPa | 0.25 mm | - | - | - |
* Rain latest hour (hover to see other rain measurements)
** Current wind speed in m/s (hover to see current wind gust speed)